Weather History for Rome, GA

Change the Weather History Date:

Monday, May 5, 2014

  Actual Average Record
Temperature  
Mean Temperature 69 °F 65 °F  
Max Temperature 86 °F 78 °F 91 °F (2012)
Min Temperature 51 °F 52 °F 37 °F (1997)
Cooling Degree Days 4 2  
Month to date cooling degree days 6 10  
Year to date cooling degree days 28 43  
Growing Degree Days 18 (Base 50)    
Moisture  
Dew Point 55 °F    
Average Humidity 66    
Maximum Humidity 100    
Minimum Humidity 32    
Precipitation  
Precipitation 0.00 in 0.14 in 2.16 in (2003)
Month to date precipitation 0.00 0.68  
Year to date precipitation 19.15 19.37  
Sea Level Pressure  
Sea Level Pressure 29.97 in    
Wind  
Wind Speed 4 mph (WSW)    
Max Wind Speed 15 mph    
Max Gust Speed 23 mph    
Visibility 10 miles    
Events      
T = Trace of Precipitation, MM = Missing Value Source: NWS Daily Summary

Daily Weather History Graph

Daily Weather History Graph

Search for Another Location

Airport:

Trip Planner

Search our weather history database for the weather conditions in past years. The results will help you decide how hot, cold, wet, or windy it might be!

Date:

Astronomy

May. 05, 2014 Rise Set
Actual Time 6:46 AM EDT 8:28 PM EDT
Civil Twilight 6:19 AM EDT 8:55 PM EDT
Nautical Twilight 5:47 AM EDT 9:28 PM EDT
Astronomical Twilight 5:12 AM EDT 10:02 PM EDT
Moon 12:05 PM EDT (5/5) 1:12 AM EDT (5/5)
Length of Visible Light 14h 35m
Length of Day
13h 41m
Waxing Crescent, 36% of the Moon is Illuminated
May 5
Waxing Crescent
May 6
First Quarter
May 14
Full
May 21
Last Quarter
May 28
New

Hourly Weather History & Observations

Time (EDT) Temp. Heat Index Dew Point Humidity Pressure Visibility Wind Dir Wind Speed Gust Speed Precip Events Conditions
12:53 AM 59.0 °F - 55.0 °F 87% 29.99 in 10.0 mi Calm Calm - N/A   Clear
1:53 AM 57.9 °F - 55.0 °F 90% 29.99 in 10.0 mi Calm Calm - N/A   Clear
2:53 AM 55.9 °F - 54.0 °F 93% 29.99 in 10.0 mi Calm Calm - N/A   Clear
3:53 AM 54.0 °F - 53.1 °F 97% 29.99 in 10.0 mi Calm Calm - N/A   Clear
4:53 AM 54.0 °F - 53.1 °F 97% 30.00 in 10.0 mi Calm Calm - N/A   Clear
5:53 AM 51.1 °F - 50.0 °F 96% 30.01 in 10.0 mi Calm Calm - N/A   Clear
6:53 AM 52.0 °F - 51.1 °F 97% 30.02 in 10.0 mi Calm Calm - N/A   Clear
7:53 AM 55.0 °F - 52.0 °F 89% 30.03 in 10.0 mi NNE 4.6 mph - N/A   Clear
8:53 AM 60.1 °F - 55.9 °F 86% 30.04 in 10.0 mi Calm Calm - N/A   Clear
9:53 AM 69.1 °F - 57.9 °F 68% 30.03 in 10.0 mi Calm Calm - N/A   Clear
10:53 AM 75.9 °F - 59.0 °F 56% 30.02 in 10.0 mi Variable 5.8 mph - N/A   Clear
11:53 AM 81.0 °F 81.1 °F 57.9 °F 45% 30.01 in 10.0 mi Variable 5.8 mph - N/A   Clear
12:53 PM 82.9 °F 82.6 °F 57.9 °F 42% 30.00 in 10.0 mi WSW 11.5 mph 18.4 mph N/A   Clear
1:53 PM 84.2 °F 83.5 °F 57.2 °F 40% 29.99 in 10.0 mi WSW 8.1 mph - N/A   Clear
2:53 PM 86.0 °F 84.9 °F 57.0 °F 37% 29.95 in 10.0 mi SW 8.1 mph - N/A   Clear
3:53 PM 86.0 °F 84.0 °F 53.1 °F 32% 29.92 in 10.0 mi Variable 5.8 mph 19.6 mph N/A   Clear
4:53 PM 86.0 °F 84.0 °F 53.1 °F 32% 29.90 in 10.0 mi West 10.4 mph 19.6 mph N/A   Clear
5:53 PM 86.0 °F 84.0 °F 53.1 °F 32% 29.89 in 10.0 mi West 11.5 mph 17.3 mph N/A   Clear
6:53 PM 84.0 °F 82.5 °F 53.1 °F 34% 29.89 in 10.0 mi West 10.4 mph - N/A   Clear
7:53 PM 81.0 °F 80.8 °F 55.9 °F 42% 29.89 in 10.0 mi Calm Calm - N/A   Clear
8:53 PM 71.1 °F - 57.9 °F 63% 29.89 in 10.0 mi Calm Calm - N/A   Clear
9:53 PM 66.9 °F - 57.9 °F 73% 29.90 in 10.0 mi SSW 3.5 mph - N/A   Clear
10:53 PM 64.9 °F - 57.0 °F 75% 29.91 in 10.0 mi SSW 4.6 mph - N/A   Clear
11:53 PM 62.6 °F - 57.2 °F 82% 29.94 in 10.0 mi Calm Calm - N/A   Clear